This is the latest recevied weather packets stored in our database for station/object K5FEP. If no packets are shown the sender has not sent any weather packets the latest 10 day(s).
| Time | Temp. | Humidity | Pressure | Rain* | Wind** | Luminosity | Snow |
|---|---|---|---|---|---|---|---|
| 1777595341 | 15.56° C | 45% | 1010.8 hPa | 0 mm | - | 0 W/m² | - |
| 1777595037 | 15.56° C | 43% | 1010.5 hPa | 0 mm | - | 0 W/m² | - |
| 1777594734 | 16.11° C | 45% | 1010.4 hPa | 0 mm | - | 0 W/m² | - |
| 1777594431 | 16.67° C | 45% | 1010.3 hPa | 0 mm | - | 1 W/m² | - |
| 1777594126 | 17.22° C | 38% | 1010.2 hPa | 0 mm | - | 2 W/m² | - |
| 1777593822 | 17.78° C | 38% | 1009.8 hPa | 0 mm | - | 3 W/m² | - |
| 1777593519 | 17.78° C | 38% | 1009.9 hPa | 0 mm | - | 6 W/m² | - |
| 1777593218 | 17.78° C | 38% | 1009.9 hPa | 0 mm | - | 9 W/m² | - |
| 1777592918 | 17.78° C | 38% | 1009.7 hPa | 0 mm | - | 12 W/m² | - |
| 1777592614 | 18.33° C | 38% | 1009.8 hPa | 0 mm | - | 16 W/m² | - |
| 1777592310 | 18.89° C | 37% | 1009.5 hPa | 0 mm | - | 19 W/m² | - |
| 1777592006 | 18.89° C | 34% | 1009.6 hPa | 0 mm | - | 22 W/m² | - |
| 1777591703 | 18.89° C | 34% | 1009.3 hPa | 0 mm | - | 25 W/m² | - |
| 1777591398 | 19.44° C | 38% | 1009.3 hPa | 0 mm | - | 28 W/m² | - |
| 1777591094 | 19.44° C | 35% | 1009.2 hPa | 0 mm | - | 31 W/m² | - |
| 1777590790 | 20° C | 34% | 1009.2 hPa | 0 mm | - | 32 W/m² | - |
| 1777590486 | 20.56° C | 34% | 1008.9 hPa | 0 mm | - | 35 W/m² | - |
| 1777590183 | 20.56° C | 33% | 1009.1 hPa | 0 mm | - | 38 W/m² | - |
| 1777589880 | 21.11° C | 32% | 1009.1 hPa | 0 mm | - | 56 W/m² | - |
| 1777589575 | 21.11° C | 32% | 1009 hPa | 0 mm | - | 41 W/m² | - |
| 1777589273 | 21.67° C | 31% | 1008.9 hPa | 0 mm | - | 42 W/m² | - |
| 1777588971 | 21.67° C | 31% | 1009.1 hPa | 0 mm | - | 44 W/m² | - |
| 1777588667 | 21.67° C | 32% | 1009 hPa | 0 mm | - | 137 W/m² | - |
| 1777588362 | 22.22° C | 32% | 1008.8 hPa | 0 mm | - | 47 W/m² | - |
| 1777588058 | 22.78° C | 33% | 1008.9 hPa | 0 mm | - | 166 W/m² | - |
* Rain latest hour (hover to see other rain measurements)
** Current wind speed in m/s (hover to see current wind gust speed)